AFL1334 UUEE-ULAA

Flight info

Callsign AFL1334
Flight time 1h 29m
Altitude 35000
Route RILP3H RILPO T753 DEGOP/K0830F340 T747 TIPNA P988 RUPAD T825 ABELU ABEL3M
Aircraft B738/M-V/N

Departure

Time 2026-05-05 17:51
Airport Sheremetyevo International Airport (UUEE)

Arrival

Time 2026-05-05 19:21
Airport Talagi Airport (ULAA)
Time Latitude Longitude Altitude Speed Heading
2026-05-05 16:55 55.97613 37.40350 641 ft 0 kts 165°
2026-05-05 17:37 55.97631 37.40342 638 ft 3 kts 166°
2026-05-05 17:38 55.97651 37.40333 639 ft 3 kts 164°
2026-05-05 17:38 55.97670 37.40321 641 ft 3 kts 148°
2026-05-05 17:38 55.97682 37.40304 639 ft 3 kts 96°
2026-05-05 17:38 55.97683 37.40294 638 ft 0 kts 75°
2026-05-05 17:43 55.97685 37.40307 641 ft 3 kts 75°
2026-05-05 17:43 55.97691 37.40350 644 ft 5 kts 76°
2026-05-05 17:43 55.97702 37.40422 638 ft 7 kts 75°
2026-05-05 17:43 55.97715 37.40515 638 ft 7 kts 75°
2026-05-05 17:44 55.97690 37.40583 644 ft 8 kts 158°
2026-05-05 17:44 55.97630 37.40614 638 ft 9 kts 165°
2026-05-05 17:44 55.97590 37.40697 638 ft 10 kts 90°
2026-05-05 17:44 55.97608 37.40827 638 ft 10 kts 76°
2026-05-05 17:45 55.97595 37.40922 638 ft 7 kts 114°
2026-05-05 17:45 55.97601 37.41019 638 ft 9 kts 76°
2026-05-05 17:45 55.97618 37.41139 638 ft 11 kts 75°
2026-05-05 17:45 55.97639 37.41281 638 ft 13 kts 75°
2026-05-05 17:46 55.97664 37.41444 638 ft 14 kts 75°
2026-05-05 17:46 55.97690 37.41619 642 ft 14 kts 75°
2026-05-05 17:46 55.97715 37.41789 640 ft 15 kts 75°
2026-05-05 17:46 55.97738 37.41941 638 ft 12 kts 75°
2026-05-05 17:47 55.97753 37.42058 638 ft 8 kts 88°
2026-05-05 17:47 55.97719 37.42122 644 ft 7 kts 161°
2026-05-05 17:47 55.97687 37.42191 638 ft 9 kts 90°
2026-05-05 17:47 55.97703 37.42307 638 ft 11 kts 75°
2026-05-05 17:48 55.97724 37.42446 642 ft 13 kts 75°
2026-05-05 17:48 55.97748 37.42607 644 ft 13 kts 75°
2026-05-05 17:48 55.97765 37.42726 638 ft 7 kts 78°
2026-05-05 17:48 55.97744 37.42786 640 ft 4 kts 154°
2026-05-05 17:49 55.97716 37.42802 638 ft 5 kts 164°
2026-05-05 17:49 55.97671 37.42824 637 ft 8 kts 165°
2026-05-05 17:49 55.97624 37.42847 637 ft 4 kts 166°
2026-05-05 17:49 55.97603 37.42823 637 ft 4 kts 243°
2026-05-05 17:50 55.97596 37.42777 638 ft 1 kts 255°
2026-05-05 17:50 55.97595 37.42776 638 ft 0 kts 255°
2026-05-05 17:50 55.97592 37.42754 638 ft 12 kts 255°
2026-05-05 17:51 55.97508 37.42190 637 ft 82 kts 255°
2026-05-05 17:51 55.97306 37.40833 640 ft 142 kts 255°
2026-05-05 17:51 55.97008 37.38879 832 ft 173 kts 255°
2026-05-05 17:51 55.96687 37.36792 1563 ft 176 kts 255°
2026-05-05 17:52 55.96369 37.34666 2344 ft 177 kts 256°
2026-05-05 17:52 55.96042 37.32561 3204 ft 176 kts 255°
2026-05-05 17:52 55.95711 37.30495 4066 ft 175 kts 256°
2026-05-05 17:52 55.95362 37.28263 4465 ft 201 kts 255°
2026-05-05 17:53 55.94951 37.25757 4670 ft 225 kts 255°
2026-05-05 17:53 55.94537 37.22943 5008 ft 245 kts 255°
2026-05-05 17:53 55.94047 37.19885 5444 ft 263 kts 254°
2026-05-05 17:53 55.93536 37.16745 6346 ft 264 kts 254°
2026-05-05 17:54 55.93067 37.13580 7252 ft 266 kts 255°
2026-05-05 17:54 55.92530 37.10402 8054 ft 270 kts 252°
2026-05-05 17:54 55.91981 37.07175 8881 ft 274 kts 254°
2026-05-05 17:54 55.91643 37.03828 9675 ft 278 kts 272°
2026-05-05 17:55 55.92132 37.00481 10424 ft 287 kts 295°
2026-05-05 17:55 55.93419 36.97568 10649 ft 316 kts 319°
2026-05-05 17:55 55.95265 36.95212 10955 ft 336 kts 323°
2026-05-05 17:55 55.97313 36.93087 11563 ft 347 kts 338°
2026-05-05 17:56 55.99714 36.92443 12359 ft 354 kts
2026-05-05 17:56 56.02123 36.93424 13132 ft 361 kts 22°
2026-05-05 17:56 56.04299 36.95746 13822 ft 368 kts 32°
2026-05-05 17:56 56.06427 36.98334 14490 ft 372 kts 32°
2026-05-05 17:57 56.08588 37.00937 15171 ft 376 kts 32°
2026-05-05 17:57 56.10706 37.03719 15834 ft 382 kts 43°
2026-05-05 17:57 56.12249 37.07616 16465 ft 388 kts 65°
2026-05-05 17:57 56.13054 37.12188 17124 ft 391 kts 76°
2026-05-05 17:58 56.13685 37.16954 17745 ft 395 kts 77°
2026-05-05 17:58 56.14331 37.21837 18336 ft 399 kts 76°
2026-05-05 17:58 56.14999 37.26694 18927 ft 403 kts 76°
2026-05-05 17:58 56.15680 37.31514 19514 ft 406 kts 74°
2026-05-05 17:59 56.16754 37.36196 20014 ft 409 kts 56°
2026-05-05 17:59 56.18399 37.40355 20622 ft 409 kts 53°
2026-05-05 17:59 56.20070 37.44518 21148 ft 413 kts 53°
2026-05-05 17:59 56.21721 37.48769 21655 ft 417 kts 54°
2026-05-05 18:00 56.23365 37.53092 22149 ft 420 kts 54°
2026-05-05 18:00 56.25014 37.57442 22646 ft 423 kts 54°
2026-05-05 18:00 56.26681 37.61826 23122 ft 426 kts 54°
2026-05-05 18:00 56.28359 37.66240 23577 ft 429 kts 54°
2026-05-05 18:01 56.30050 37.70692 24037 ft 432 kts 54°
2026-05-05 18:01 56.31870 37.75001 24479 ft 433 kts 49°
2026-05-05 18:01 56.33172 37.77730 24774 ft 435 kts 47°
2026-05-05 18:01 56.35838 37.83261 25314 ft 439 kts 48°
2026-05-05 18:02 56.37924 37.87292 25673 ft 440 kts 37°
2026-05-05 18:02 56.40542 37.90094 26053 ft 438 kts 19°
2026-05-05 18:02 56.43468 37.91440 26460 ft 434 kts
2026-05-05 18:02 56.46478 37.91863 26883 ft 434 kts
2026-05-05 18:03 56.48477 37.92071 27103 ft 436 kts
2026-05-05 18:03 56.52542 37.92494 27555 ft 439 kts
2026-05-05 18:03 56.55598 37.92855 27898 ft 442 kts
2026-05-05 18:03 56.57631 37.93116 28128 ft 442 kts
2026-05-05 18:04 56.60708 37.93534 28482 ft 444 kts
2026-05-05 18:04 56.63797 37.93959 28796 ft 446 kts
2026-05-05 18:04 56.67889 37.94956 29157 ft 454 kts 15°
2026-05-05 18:04 56.70746 37.97495 29436 ft 462 kts 34°
2026-05-05 18:05 56.73160 38.01396 29766 ft 466 kts 43°
2026-05-05 18:05 56.74673 38.04171 29953 ft 467 kts 43°
2026-05-05 18:05 56.76952 38.08423 30161 ft 471 kts 44°
2026-05-05 18:05 56.79254 38.12692 30384 ft 473 kts 43°
2026-05-05 18:06 56.81580 38.16948 30711 ft 473 kts 43°
2026-05-05 18:06 56.83151 38.19792 30977 ft 471 kts 43°
2026-05-05 18:06 56.86231 38.25349 31483 ft 469 kts 43°
2026-05-05 18:06 56.88585 38.29475 31774 ft 469 kts 40°
2026-05-05 18:07 56.91035 38.33414 32043 ft 469 kts 39°
2026-05-05 18:07 56.93536 38.37271 32257 ft 471 kts 38°
2026-05-05 18:07 56.96055 38.41111 32520 ft 471 kts 38°
2026-05-05 18:07 56.98569 38.44963 32805 ft 471 kts 38°
2026-05-05 18:08 57.01075 38.48840 33093 ft 471 kts 38°
2026-05-05 18:08 57.03575 38.52742 33378 ft 471 kts 39°
2026-05-05 18:08 57.06058 38.56645 33697 ft 470 kts 39°
2026-05-05 18:08 57.08532 38.60554 33976 ft 469 kts 39°
2026-05-05 18:09 57.11004 38.64471 34225 ft 469 kts 39°
2026-05-05 18:09 57.13473 38.68390 34452 ft 469 kts 39°
2026-05-05 18:09 57.15951 38.72332 34592 ft 471 kts 39°
2026-05-05 18:09 57.18433 38.76283 34736 ft 472 kts 39°
2026-05-05 18:10 57.20918 38.80247 34778 ft 473 kts 39°
2026-05-05 18:10 57.25878 38.88178 34779 ft 470 kts 39°
2026-05-05 18:11 57.30804 38.96087 34788 ft 468 kts 39°
2026-05-05 18:11 57.35710 39.03992 34773 ft 467 kts 39°
2026-05-05 18:12 57.40563 39.11838 34773 ft 466 kts 39°
2026-05-05 18:12 57.45443 39.19755 34778 ft 466 kts 39°
2026-05-05 18:13 57.50328 39.27707 34781 ft 467 kts 39°
2026-05-05 18:13 57.55221 39.35688 34774 ft 469 kts 39°
2026-05-05 18:14 57.60129 39.43723 34780 ft 470 kts 39°
2026-05-05 18:14 57.65047 39.51802 34779 ft 472 kts 39°
2026-05-05 18:15 57.69980 39.59940 34778 ft 473 kts 39°
2026-05-05 18:15 57.74914 39.68113 34772 ft 475 kts 39°
2026-05-05 18:16 57.79860 39.76335 34778 ft 475 kts 39°
2026-05-05 18:16 57.84933 39.84239 34750 ft 472 kts 25°
2026-05-05 18:16 57.87956 39.86406 34799 ft 462 kts
2026-05-05 18:17 57.91123 39.87082 34779 ft 455 kts 354°
2026-05-05 18:17 57.97306 39.85188 34792 ft 449 kts 344°
2026-05-05 18:18 58.03409 39.82729 34971 ft 448 kts 344°
2026-05-05 18:18 58.06462 39.81529 35090 ft 449 kts 345°
2026-05-05 18:18 58.09524 39.80355 35213 ft 450 kts 345°
2026-05-05 18:18 58.12596 39.79197 35332 ft 450 kts 345°
2026-05-05 18:19 58.15673 39.78049 35460 ft 451 kts 345°
2026-05-05 18:19 58.18757 39.76898 35584 ft 452 kts 345°
2026-05-05 18:19 58.21840 39.75743 35705 ft 452 kts 345°
2026-05-05 18:20 58.28022 39.73419 35784 ft 455 kts 345°
2026-05-05 18:20 58.34221 39.71081 35784 ft 453 kts 345°
2026-05-05 18:21 58.40352 39.68742 35787 ft 451 kts 345°
2026-05-05 18:21 58.46498 39.66381 35783 ft 450 kts 345°
2026-05-05 18:22 58.52632 39.64019 35772 ft 449 kts 345°
2026-05-05 18:22 58.58754 39.61656 35770 ft 449 kts 345°
2026-05-05 18:23 58.64883 39.59278 35785 ft 450 kts 345°
2026-05-05 18:23 58.71023 39.56890 35766 ft 451 kts 345°
2026-05-05 18:24 58.77244 39.55111 35766 ft 455 kts 353°
2026-05-05 18:24 58.83573 39.54260 35765 ft 457 kts 353°
2026-05-05 18:25 58.89910 39.53254 35767 ft 457 kts 352°
2026-05-05 18:25 58.96218 39.52202 35761 ft 459 kts 352°
2026-05-05 18:26 59.02579 39.51145 35758 ft 459 kts 352°
2026-05-05 18:26 59.08945 39.50089 35760 ft 460 kts 352°
2026-05-05 18:27 59.15319 39.49031 35757 ft 460 kts 352°
2026-05-05 18:27 59.21689 39.47964 35760 ft 460 kts 352°
2026-05-05 18:28 59.31243 39.46350 35760 ft 459 kts 352°
2026-05-05 18:28 59.37603 39.45274 35751 ft 459 kts 352°
2026-05-05 18:29 59.43960 39.44194 35748 ft 458 kts 352°
2026-05-05 18:29 59.50305 39.43110 35749 ft 458 kts 352°
2026-05-05 18:30 59.56648 39.42023 35749 ft 457 kts 352°
2026-05-05 18:30 59.62945 39.40941 35748 ft 457 kts 352°
2026-05-05 18:31 59.69325 39.39840 35750 ft 457 kts 352°
2026-05-05 18:31 59.75664 39.38739 35752 ft 458 kts 352°
2026-05-05 18:32 59.81963 39.37621 35748 ft 457 kts 351°
2026-05-05 18:32 59.88326 39.36147 35743 ft 457 kts 350°
2026-05-05 18:33 59.94603 39.34593 35739 ft 458 kts 350°
2026-05-05 18:33 60.00924 39.33065 35741 ft 458 kts 351°
2026-05-05 18:34 60.07256 39.31556 35739 ft 458 kts 351°
2026-05-05 18:34 60.13587 39.30043 35741 ft 458 kts 351°
2026-05-05 18:35 60.19923 39.28520 35740 ft 459 kts 350°
2026-05-05 18:35 60.26247 39.26881 35739 ft 459 kts 349°
2026-05-05 18:36 60.32574 39.25151 35741 ft 459 kts 349°
2026-05-05 18:36 60.38902 39.23430 35732 ft 459 kts 349°
2026-05-05 18:37 60.45236 39.21716 35732 ft 459 kts 349°
2026-05-05 18:37 60.51569 39.19990 35729 ft 459 kts 349°
2026-05-05 18:38 60.57902 39.18261 35733 ft 459 kts 349°
2026-05-05 18:38 60.64234 39.16522 35729 ft 459 kts 349°
2026-05-05 18:39 60.70570 39.14775 35722 ft 459 kts 349°
2026-05-05 18:39 60.76903 39.13021 35721 ft 459 kts 349°
2026-05-05 18:40 60.83240 39.11261 35721 ft 459 kts 349°
2026-05-05 18:40 60.89569 39.09495 35725 ft 459 kts 349°
2026-05-05 18:41 60.95898 39.07721 35711 ft 459 kts 349°
2026-05-05 18:41 61.02183 39.05953 35713 ft 459 kts 349°
2026-05-05 18:42 61.08512 39.04165 35712 ft 459 kts 349°
2026-05-05 18:42 61.14840 39.02370 35709 ft 459 kts 349°
2026-05-05 18:43 61.21172 39.00569 35702 ft 459 kts 349°
2026-05-05 18:43 61.27504 38.98843 35699 ft 461 kts 353°
2026-05-05 18:44 61.33930 38.99882 35713 ft 467 kts
2026-05-05 18:44 61.40303 39.02567 35699 ft 468 kts
2026-05-05 18:45 61.46682 39.05266 35693 ft 468 kts
2026-05-05 18:45 61.53078 39.07874 35690 ft 468 kts
2026-05-05 18:46 61.59473 39.10445 35689 ft 468 kts
2026-05-05 18:46 61.65875 39.13028 35685 ft 469 kts
2026-05-05 18:47 61.72283 39.15631 35683 ft 469 kts
2026-05-05 18:47 61.78698 39.18250 35677 ft 469 kts
2026-05-05 18:48 61.85106 39.20873 35672 ft 469 kts
2026-05-05 18:48 61.91510 39.23540 35674 ft 469 kts
2026-05-05 18:49 61.97895 39.26453 35665 ft 469 kts
2026-05-05 18:49 62.04282 39.29404 35653 ft 470 kts
2026-05-05 18:50 62.10682 39.32335 35641 ft 470 kts
2026-05-05 18:50 62.17082 39.35270 35634 ft 471 kts
2026-05-05 18:51 62.23455 39.38198 35371 ft 474 kts
2026-05-05 18:51 62.26719 39.39702 35121 ft 472 kts
2026-05-05 18:51 62.29927 39.41184 34871 ft 470 kts
2026-05-05 18:52 62.33119 39.42664 34468 ft 469 kts
2026-05-05 18:52 62.36265 39.44123 33842 ft 469 kts
2026-05-05 18:52 62.39456 39.45607 33210 ft 469 kts
2026-05-05 18:52 62.42642 39.47092 32714 ft 466 kts
2026-05-05 18:53 62.45792 39.48567 32280 ft 461 kts
2026-05-05 18:53 62.48916 39.50031 31833 ft 457 kts
2026-05-05 18:53 62.52012 39.51486 31395 ft 453 kts
2026-05-05 18:53 62.55085 39.52931 30984 ft 449 kts
2026-05-05 18:54 62.58126 39.54364 30550 ft 446 kts
2026-05-05 18:54 62.60125 39.55310 30267 ft 443 kts
2026-05-05 18:54 62.63124 39.56728 29863 ft 439 kts
2026-05-05 18:54 62.66096 39.58135 29444 ft 435 kts
2026-05-05 18:55 62.69044 39.59533 29020 ft 432 kts
2026-05-05 18:55 62.71968 39.60924 28604 ft 428 kts
2026-05-05 18:55 62.74869 39.62307 28181 ft 425 kts
2026-05-05 18:55 62.77744 39.63680 27773 ft 421 kts
2026-05-05 18:56 62.80597 39.65045 27350 ft 418 kts
2026-05-05 18:56 62.83428 39.66401 26937 ft 415 kts
2026-05-05 18:56 62.86231 39.67749 26536 ft 412 kts
2026-05-05 18:56 62.89020 39.69092 26133 ft 409 kts
2026-05-05 18:57 62.91789 39.70427 25728 ft 407 kts
2026-05-05 18:57 62.94543 39.71756 25318 ft 404 kts
2026-05-05 18:57 62.97274 39.73079 24935 ft 401 kts
2026-05-05 18:57 62.99993 39.74398 24528 ft 398 kts
2026-05-05 18:58 63.02683 39.75706 24141 ft 395 kts
2026-05-05 18:58 63.05365 39.77011 23740 ft 393 kts
2026-05-05 18:58 63.08027 39.78310 23357 ft 390 kts
2026-05-05 18:58 63.10665 39.79600 22969 ft 388 kts
2026-05-05 18:59 63.13294 39.80887 22579 ft 385 kts
2026-05-05 18:59 63.15902 39.82167 22202 ft 383 kts
2026-05-05 18:59 63.18494 39.83442 21814 ft 380 kts
2026-05-05 18:59 63.21070 39.84709 21435 ft 378 kts
2026-05-05 19:00 63.23628 39.85972 21066 ft 375 kts
2026-05-05 19:00 63.26171 39.87228 20687 ft 373 kts
2026-05-05 19:00 63.28708 39.88482 20321 ft 373 kts
2026-05-05 19:00 63.31241 39.89737 19941 ft 374 kts
2026-05-05 19:01 63.33800 39.91004 19572 ft 380 kts
2026-05-05 19:01 63.36360 39.92277 19193 ft 384 kts
2026-05-05 19:01 63.38966 39.93578 18794 ft 382 kts
2026-05-05 19:01 63.41553 39.94873 18419 ft 380 kts
2026-05-05 19:02 63.44120 39.96160 18030 ft 377 kts
2026-05-05 19:02 63.46652 39.97680 17730 ft 376 kts 13°
2026-05-05 19:02 63.49125 39.99527 17478 ft 373 kts 14°
2026-05-05 19:02 63.51561 40.01454 17226 ft 369 kts 15°
2026-05-05 19:03 63.53980 40.03373 16982 ft 370 kts 15°
2026-05-05 19:03 63.56420 40.05284 16740 ft 373 kts 15°
2026-05-05 19:03 63.58871 40.07186 16492 ft 373 kts 15°
2026-05-05 19:03 63.61314 40.09072 16237 ft 370 kts 15°
2026-05-05 19:04 63.63744 40.10943 15986 ft 368 kts 15°
2026-05-05 19:04 63.66165 40.12803 15736 ft 366 kts 15°
2026-05-05 19:04 63.68570 40.14650 15486 ft 364 kts 15°
2026-05-05 19:04 63.70966 40.16496 15236 ft 363 kts 15°
2026-05-05 19:05 63.73346 40.18354 14963 ft 362 kts 17°
2026-05-05 19:05 63.75631 40.20725 14636 ft 361 kts 25°
2026-05-05 19:05 63.77812 40.23460 14263 ft 356 kts 27°
2026-05-05 19:05 63.79947 40.26263 13707 ft 354 kts 27°
2026-05-05 19:06 63.82069 40.29053 13182 ft 352 kts 27°
2026-05-05 19:06 63.84182 40.31800 12709 ft 348 kts 27°
2026-05-05 19:06 63.86275 40.34489 12233 ft 344 kts 27°
2026-05-05 19:06 63.88351 40.37136 11747 ft 341 kts 27°
2026-05-05 19:07 63.90409 40.39749 11256 ft 338 kts 27°
2026-05-05 19:07 63.92459 40.42351 10740 ft 336 kts 27°
2026-05-05 19:07 63.94496 40.44933 10241 ft 334 kts 27°
2026-05-05 19:07 63.96505 40.47481 9940 ft 325 kts 27°
2026-05-05 19:08 63.98450 40.49951 9754 ft 315 kts 27°
2026-05-05 19:08 64.00341 40.52360 9602 ft 308 kts 26°
2026-05-05 19:08 64.02192 40.54720 9469 ft 302 kts 27°
2026-05-05 19:08 64.04016 40.57050 9179 ft 300 kts 27°
2026-05-05 19:09 64.05841 40.59380 8909 ft 300 kts 27°
2026-05-05 19:09 64.07656 40.61702 8631 ft 299 kts 27°
2026-05-05 19:09 64.09464 40.64020 8355 ft 298 kts 27°
2026-05-05 19:09 64.11269 40.66345 8070 ft 297 kts 27°
2026-05-05 19:10 64.13071 40.68655 7786 ft 296 kts 27°
2026-05-05 19:10 64.14862 40.70959 7521 ft 295 kts 27°
2026-05-05 19:10 64.16640 40.73267 7305 ft 292 kts 27°
2026-05-05 19:10 64.18373 40.75509 7047 ft 290 kts 27°
2026-05-05 19:11 64.20121 40.77774 6805 ft 288 kts 27°
2026-05-05 19:11 64.21861 40.80043 6554 ft 287 kts 27°
2026-05-05 19:11 64.23590 40.82282 6310 ft 285 kts 27°
2026-05-05 19:11 64.25316 40.84519 6059 ft 284 kts 27°
2026-05-05 19:12 64.27028 40.86773 5802 ft 282 kts 27°
2026-05-05 19:12 64.28740 40.88997 5546 ft 283 kts 27°
2026-05-05 19:12 64.30463 40.91220 5301 ft 283 kts 27°
2026-05-05 19:12 64.32165 40.93466 5054 ft 281 kts 28°
2026-05-05 19:13 64.33863 40.95701 4816 ft 281 kts 28°
2026-05-05 19:13 64.35557 40.97924 4568 ft 279 kts 28°
2026-05-05 19:13 64.37227 41.00115 4407 ft 274 kts 28°
2026-05-05 19:13 64.38884 41.02297 4150 ft 274 kts 28°
2026-05-05 19:14 64.40532 41.04473 3898 ft 272 kts 28°
2026-05-05 19:14 64.42165 41.06629 3644 ft 269 kts 28°
2026-05-05 19:14 64.43782 41.08772 3422 ft 265 kts 28°
2026-05-05 19:14 64.45332 41.10816 3360 ft 250 kts 28°
2026-05-05 19:15 64.46801 41.12777 3243 ft 237 kts 28°
2026-05-05 19:15 64.48249 41.14321 3116 ft 222 kts
2026-05-05 19:15 64.49727 41.14639 3043 ft 206 kts
2026-05-05 19:15 64.51108 41.14999 2941 ft 193 kts
2026-05-05 19:16 64.52403 41.15368 2924 ft 186 kts
2026-05-05 19:16 64.53711 41.15779 2945 ft 195 kts
2026-05-05 19:16 64.55077 41.16230 2967 ft 200 kts
2026-05-05 19:16 64.56409 41.15830 2930 ft 191 kts 328°
2026-05-05 19:17 64.57418 41.13958 2948 ft 186 kts 303°
2026-05-05 19:17 64.57940 41.11287 2936 ft 181 kts 277°
2026-05-05 19:17 64.58182 41.08381 2858 ft 182 kts 279°
2026-05-05 19:17 64.58398 41.05578 2669 ft 173 kts 275°
2026-05-05 19:18 64.58543 41.02882 2469 ft 160 kts 274°
2026-05-05 19:18 64.58662 41.00386 2292 ft 153 kts 274°
2026-05-05 19:18 64.58777 40.97905 2066 ft 152 kts 274°
2026-05-05 19:18 64.58890 40.95485 1863 ft 153 kts 275°
2026-05-05 19:19 64.59005 40.93018 1674 ft 153 kts 275°
2026-05-05 19:19 64.59121 40.90556 1456 ft 153 kts 275°
2026-05-05 19:19 64.59237 40.88091 1261 ft 153 kts 275°
2026-05-05 19:19 64.59353 40.85646 1049 ft 151 kts 275°
2026-05-05 19:20 64.59470 40.83205 815 ft 153 kts 275°
2026-05-05 19:20 64.59585 40.80756 615 ft 151 kts 275°
2026-05-05 19:20 64.59713 40.78302 310 ft 154 kts 272°
2026-05-05 19:20 64.59822 40.75901 195 ft 146 kts 272°
2026-05-05 19:21 64.59932 40.73600 39 ft 138 kts 276°
2026-05-05 19:21 64.60025 40.71732 34 ft 86 kts 276°
2026-05-05 19:21 64.60071 40.70803 37 ft 45 kts 276°
2026-05-05 19:21 64.60103 40.70160 35 ft 32 kts 276°
2026-05-05 19:22 64.60124 40.69717 36 ft 26 kts 276°
2026-05-05 19:22 64.60142 40.69350 36 ft 18 kts 276°
2026-05-05 19:22 64.60147 40.69141 36 ft 9 kts 258°
2026-05-05 19:22 64.60106 40.69065 35 ft 8 kts 190°
2026-05-05 19:23 64.60053 40.69051 39 ft 8 kts 186°
2026-05-05 19:23 64.60001 40.69036 39 ft 7 kts 187°
2026-05-05 19:23 64.59953 40.69051 39 ft 7 kts 141°
2026-05-05 19:23 64.59938 40.69157 39 ft 7 kts 97°
2026-05-05 19:24 64.59932 40.69268 39 ft 7 kts 96°
2026-05-05 19:24 64.59927 40.69378 39 ft 7 kts 96°
2026-05-05 19:24 64.59920 40.69513 39 ft 10 kts 96°
2026-05-05 19:24 64.59912 40.69692 39 ft 12 kts 96°
2026-05-05 19:25 64.59901 40.69905 39 ft 14 kts 96°
2026-05-05 19:25 64.59890 40.70138 39 ft 15 kts 96°
2026-05-05 19:25 64.59879 40.70379 37 ft 15 kts 96°
2026-05-05 19:25 64.59867 40.70626 39 ft 15 kts 96°
2026-05-05 19:26 64.59856 40.70855 39 ft 12 kts 96°
2026-05-05 19:26 64.59846 40.70998 39 ft 5 kts 119°
2026-05-05 19:26 64.59812 40.71018 39 ft 6 kts 182°
2026-05-05 19:26 64.59771 40.71008 39 ft 6 kts 186°
2026-05-05 19:27 64.59743 40.71034 39 ft 4 kts 124°
2026-05-05 19:27 64.59734 40.71111 39 ft 6 kts 97°
2026-05-05 19:27 64.59730 40.71208 39 ft 7 kts 96°
2026-05-05 19:27 64.59724 40.71319 39 ft 7 kts 97°
2026-05-05 19:28 64.59719 40.71423 39 ft 5 kts 96°
2026-05-05 19:28 64.59708 40.71474 39 ft 4 kts 146°
2026-05-05 19:28 64.59680 40.71482 39 ft 4 kts 181°
2026-05-05 19:28 64.59665 40.71479 39 ft 0 kts 185°
2026-05-05 19:29 64.59663 40.71480 39 ft 0 kts 186°